User: anonymous   Login
Location: Drayton Valley
(53.2170°N, 114.9830°W)
Time: 13:49:05
(UTC-06:00)
Language:

Cosmos 1302 Rocket - Orbit

View from above orbital plane
View from above orbital plane
View from above satellite
View from above satellite

Ground track
Ground track

The orbit data is extracted from the following two-line orbital elements,

1 12792U 81084B   15242.27889374  .00000088  00000-0  38389-4 0  9995
2 12792 074.0308 164.5616 0014847 251.0900 223.9239 14.37334604780678
Epoch (UTC): 30 August 2015 06:41:36
Eccentricity: 0.0014847
inclination: 74.0308°
perigee height: 757 km
apogee height: 778 km
right ascension of ascending node: 164.5616°
argument of perigee: 251.0900°
revolutions per day: 14.37334604
mean anomaly at epoch: 223.9239°
orbit number at epoch: 78067

The dashed part of the orbit path shows where the satellite is in the earth's shadow,  

DLR